When you browse on this site, cookies collect data to enhance your experience and personalize the content and advertising you see.
Visit our Privacy Policy to learn more. By continuing to use the site, you agree to this use of cookies and data.
EN

Hourly Weather Karataevka

Today, 22 September, Tuesday

Time Temperature Precipitation Wind Pressure Humidity
00:00 +6°C° 0 mm 5 mps 750 mmHg 92%
01:00 +6°C° 0 mm 5 mps 750 mmHg 93%
02:00 +6°C° 0 mm 4 mps 751 mmHg 94%
03:00 +5°C° 0 mm 4 mps 751 mmHg 95%
04:00 +5°C° 0 mm 4 mps 751 mmHg 95%
05:00 +5°C° 0 mm 4 mps 752 mmHg 96%
06:00 +5°C° 0 mm 3 mps 752 mmHg 96%
07:00 +7°C° 0 mm 4 mps 752 mmHg 91%
08:00 +8°C° 0 mm 4 mps 752 mmHg 86%
09:00 +9°C° 0 mm 5 mps 752 mmHg 82%
10:00 +10°C° 0 mm 6 mps 752 mmHg 80%
11:00 +10°C° 0 mm 6 mps 752 mmHg 78%
12:00 +11°C° 0 mm 7 mps 752 mmHg 77%
13:00 +12°C° 0 mm 7 mps 751 mmHg 75%
14:00 +14°C° 0 mm 7 mps 751 mmHg 74%
15:00 +13°C° 0 mm 8 mps 751 mmHg 72%
16:00 +14°C° 0 mm 7 mps 750 mmHg 75%
17:00 +13°C° 0 mm 6 mps 750 mmHg 77%
18:00 +13°C° 0 mm 6 mps 750 mmHg 80%
19:00 +13°C° 0 mm 6 mps 750 mmHg 80%
20:00 +13°C° 0 mm 6 mps 750 mmHg 80%
21:00 +14°C° 0 mm 6 mps 750 mmHg 80%
22:00 +13°C° 0 mm 6 mps 749 mmHg 81%
23:00 +13°C° 0 mm 6 mps 749 mmHg 83%

Tomorrow, 23 September, Wednesday

Time Temperature Precipitation Wind Pressure Humidity
00:00 +13°C° 0 mm 6 mps 748 mmHg 84%
01:00 +13°C° 0 mm 6 mps 748 mmHg 83%
02:00 +12°C° 0 mm 7 mps 749 mmHg 81%
03:00 +12°C° 0 mm 7 mps 749 mmHg 80%
04:00 +11°C° 0 mm 7 mps 749 mmHg 81%
05:00 +11°C° 0 mm 6 mps 750 mmHg 82%
06:00 +10°C° 0 mm 6 mps 750 mmHg 83%
07:00 +11°C° 0 mm 7 mps 751 mmHg 80%
08:00 +11°C° 0 mm 7 mps 751 mmHg 77%
09:00 +12°C° 0 mm 8 mps 752 mmHg 73%
10:00 +13°C° 0 mm 8 mps 752 mmHg 67%
11:00 +13°C° 0 mm 8 mps 753 mmHg 60%
12:00 +15°C° 0 mm 7 mps 753 mmHg 53%
13:00 +15°C° 0 mm 7 mps 754 mmHg 52%
14:00 +14°C° 0 mm 6 mps 754 mmHg 51%
15:00 +14°C° 0 mm 6 mps 755 mmHg 50%
16:00 +13°C° 0 mm 5 mps 755 mmHg 55%
17:00 +11°C° 0 mm 4 mps 756 mmHg 59%
18:00 +10°C° 0 mm 3 mps 756 mmHg 64%
19:00 +9°C° 0 mm 2 mps 757 mmHg 66%
20:00 +8°C° 0 mm 2 mps 757 mmHg 68%
21:00 +8°C° 0 mm 2 mps 758 mmHg 70%
22:00 +7°C° 0 mm 2 mps 758 mmHg 72%
23:00 +8°C° 0 mm 1 mps 759 mmHg 73%

Day after tomorrow, 24 September, Thursday

Time Temperature Precipitation Wind Pressure Humidity
00:00 +7°C° 0 mm 1 mps 759 mmHg 75%
01:00 +7°C° 0 mm 1 mps 760 mmHg 76%
02:00 +6°C° 0 mm 0 mps 760 mmHg 78%
03:00 +6°C° 0 mm 0 mps 761 mmHg 79%
04:00 +6°C° 0 mm 0 mps 761 mmHg 79%
05:00 +6°C° 0 mm 0 mps 761 mmHg 79%
06:00 +6°C° 0 mm 0 mps 762 mmHg 79%
07:00 +8°C° 0 mm 0 mps 762 mmHg 72%
08:00 +10°C° 0 mm 1 mps 762 mmHg 66%
09:00 +12°C° 0 mm 1 mps 763 mmHg 60%
10:00 +13°C° 0 mm 1 mps 763 mmHg 54%
11:00 +14°C° 0 mm 1 mps 763 mmHg 49%
12:00 +16°C° 0 mm 1 mps 763 mmHg 44%
13:00 +16°C° 0 mm 1 mps 763 mmHg 44%
14:00 +16°C° 0 mm 1 mps 763 mmHg 43%
15:00 +18°C° 0 mm 1 mps 763 mmHg 42%
16:00 +15°C° 0 mm 1 mps 763 mmHg 47%
17:00 +14°C° 0 mm 1 mps 763 mmHg 52%
18:00 +12°C° 0 mm 1 mps 763 mmHg 57%
19:00 +11°C° 0 mm 1 mps 763 mmHg 58%
20:00 +11°C° 0 mm 1 mps 763 mmHg 60%
21:00 +9°C° 0 mm 2 mps 764 mmHg 61%
22:00 +9°C° 0 mm 2 mps 764 mmHg 61%
23:00 +9°C° 0 mm 2 mps 764 mmHg 62%

25 September, Friday

Time Temperature Precipitation Wind Pressure Humidity
00:00 +9°C° 0 mm 2 mps 764 mmHg 62%
01:00 +8°C° 0 mm 2 mps 764 mmHg 64%
02:00 +8°C° 0 mm 2 mps 764 mmHg 66%
03:00 +8°C° 0 mm 2 mps 764 mmHg 68%
04:00 +8°C° 0 mm 2 mps 765 mmHg 69%
05:00 +8°C° 0 mm 2 mps 765 mmHg 69%
06:00 +8°C° 0 mm 2 mps 765 mmHg 70%
07:00 +9°C° 0 mm 2 mps 765 mmHg 66%
08:00 +12°C° 0 mm 2 mps 765 mmHg 62%
09:00 +12°C° 0 mm 3 mps 765 mmHg 58%
10:00 +14°C° 0 mm 3 mps 765 mmHg 55%
11:00 +16°C° 0 mm 3 mps 765 mmHg 51%
12:00 +18°C° 0 mm 3 mps 765 mmHg 48%
13:00 +18°C° 0 mm 3 mps 765 mmHg 48%
14:00 +18°C° 0 mm 2 mps 765 mmHg 49%
15:00 +18°C° 0 mm 2 mps 765 mmHg 49%
16:00 +16°C° 0 mm 2 mps 765 mmHg 53%
17:00 +15°C° 0 mm 1 mps 765 mmHg 58%
18:00 +13°C° 0 mm 1 mps 765 mmHg 62%
19:00 +13°C° 0 mm 1 mps 765 mmHg 64%
20:00 +12°C° 0 mm 1 mps 766 mmHg 65%
21:00 +12°C° 0 mm 1 mps 766 mmHg 67%
22:00 +11°C° 0 mm 1 mps 766 mmHg 68%
23:00 +11°C° 0 mm 1 mps 766 mmHg 70%

26 September, Saturday

Time Temperature Precipitation Wind Pressure Humidity
00:00 +11°C° 0 mm 1 mps 766 mmHg 71%
01:00 +11°C° 0 mm 1 mps 766 mmHg 71%
02:00 +10°C° 0 mm 1 mps 766 mmHg 72%
03:00 +10°C° 0 mm 1 mps 766 mmHg 72%
04:00 +10°C° 0 mm 1 mps 767 mmHg 72%
05:00 +10°C° 0 mm 1 mps 767 mmHg 72%
06:00 +10°C° 0 mm 1 mps 767 mmHg 72%
07:00 +10°C° 0 mm 2 mps 767 mmHg 69%
08:00 +12°C° 0 mm 2 mps 767 mmHg 65%
09:00 +14°C° 0 mm 2 mps 767 mmHg 61%
10:00 +15°C° 0 mm 2 mps 767 mmHg 58%
11:00 +16°C° 0 mm 3 mps 767 mmHg 54%
12:00 +17°C° 0 mm 3 mps 768 mmHg 51%
13:00 +18°C° 0 mm 3 mps 768 mmHg 51%
14:00 +18°C° 0 mm 2 mps 768 mmHg 51%
15:00 +18°C° 0 mm 2 mps 768 mmHg 51%
16:00 +16°C° 0 mm 2 mps 768 mmHg 56%
17:00 +15°C° 0 mm 2 mps 768 mmHg 60%
18:00 +13°C° 0 mm 2 mps 768 mmHg 65%
19:00 +13°C° 0 mm 2 mps 768 mmHg 66%
20:00 +12°C° 0 mm 2 mps 768 mmHg 66%
21:00 +12°C° 0 mm 2 mps 768 mmHg 67%
22:00 +12°C° 0 mm 2 mps 768 mmHg 67%
23:00 +12°C° 0 mm 2 mps 769 mmHg 68%

27 September, Sunday

Time Temperature Precipitation Wind Pressure Humidity
00:00 +11°C° 0 mm 1 mps 769 mmHg 68%
01:00 +11°C° 0 mm 1 mps 769 mmHg 69%
02:00 +11°C° 0 mm 1 mps 769 mmHg 69%
03:00 +11°C° 0 mm 1 mps 770 mmHg 69%
04:00 +10°C° 0 mm 1 mps 770 mmHg 69%
05:00 +10°C° 0 mm 1 mps 770 mmHg 70%
06:00 +10°C° 0 mm 1 mps 770 mmHg 70%
07:00 +12°C° 0 mm 1 mps 770 mmHg 66%
08:00 +13°C° 0 mm 2 mps 770 mmHg 61%
09:00 +15°C° 0 mm 2 mps 770 mmHg 57%
10:00 +16°C° 0 mm 2 mps 770 mmHg 53%
11:00 +17°C° 0 mm 2 mps 770 mmHg 50%
12:00 +18°C° 0 mm 2 mps 771 mmHg 46%
13:00 +18°C° 0 mm 2 mps 771 mmHg 47%
14:00 +18°C° 0 mm 2 mps 770 mmHg 48%
15:00 +18°C° 0 mm 2 mps 770 mmHg 49%
16:00 +17°C° 0 mm 2 mps 770 mmHg 53%
17:00 +15°C° 0 mm 2 mps 770 mmHg 58%
18:00 +14°C° 0 mm 1 mps 770 mmHg 63%
19:00 +13°C° 0 mm 1 mps 770 mmHg 65%
20:00 +13°C° 0 mm 1 mps 771 mmHg 67%
21:00 +12°C° 0 mm 1 mps 771 mmHg 69%
22:00 +12°C° 0 mm 1 mps 771 mmHg 70%
23:00 +12°C° 0 mm 1 mps 771 mmHg 72%
Show more